Tracking 19246 objects as of 21-Sep-2018
HD Live streaming from Space Station
objects crossing your sky now

NIMBUS 2 DEB

Track NIMBUS 2 DEB now!
10-day predictions


NORAD ID: 31579
Int'l Code: 1966-040AR
Perigee: 1,074.9 km
Apogee: 1,148.7 km
Inclination: 100.5 °
Period: 107.4 minutes
Semi major axis: 7482 km
RCS: 0.0155 m2 (small)
Launch date: May 15, 1966
Source: United States (US)
Launch site: AIR FORCE WESTERN TEST RANGE (AFWTR)

Note: This is SATELLITE DEBRIS
aabbcc
Your satellite tracking list
Your tracking list is empty




NASA's NSSDC Master Catalog

Two Line Element Set (TLE):
1 31579U 66040AR  18262.97177418 +.00000564 +00000-0 +10948-2 0  9993
2 31579 100.5279 075.1558 0049307 058.0418 093.8300 13.41244648556412
Source of the keplerian elements: AFSPC